Location: Catstown
(52.4386°N, 7.2633°W)
Time: 05:05:33
(UTC+00:00)

Exosat Rocket - Pass Details

Date: 18 September 2020
Orbit: 761 x 2514 km, 72.3° (Epoch: 20 October)

Event Time Altitude Azimuth Distance (km) Brightness Sun altitude
Rises 20:59:12 0° 200° (SSW) 3,602 6.8 -21.4°
Reaches altitude 10° 21:01:52 10° 198° (SSW) 2,514 6.0 -21.7°
Maximum altitude 21:07:17 72° 115° (ESE) 821 3.4 -22.4°
Drops below altitude 10° 21:12:15 10° 32° (NNE) 2,316 6.0 -23.0°
Sets 21:14:38 0° 30° (NNE) 3,294 6.9 -23.3°
